National Weather Service Raw Text Product

Displaying AFOS PIL: RWRIA Received: 2017-11-15 07:00 UTC


277 
ASUS43 KDMX 150706
RWRIA 

WEATHER ROUNDUP FOR IOWA
NATIONAL WEATHER SERVICE DES MOINES IA
100 AM CST WED NOV 15 2017

NOTE: "FAIR" INDICATES FEW OR NO CLOUDS BELOW 12,000 FEET WITH NO
SIGNIFICANT WEATHER AND/OR OBSTRUCTIONS TO VISIBILITY.

* - THESE STATIONS ARE NOT NWS STATIONS...THUS NOT UNDER NWS
QUALITY CONTROL.  THEY ALSO DO NOT REPORT WEATHER SUCH 
AS PRECIPITATION OR FOG.  

IAZ001>003-012>014-020>022-031>034-043>046-150800-
   NORTHWEST IOWA
  
CITY           SKY/WX    TMP DP  RH WIND       PRES   REMARKS
CARROLL *      MOCLDY    52  50  93 W13       29.85R                  
CHEROKEE *     CLOUDY    46  45  95 NW14G21   29.87S                  
DENISON *      CLOUDY    52  50  93 W10       29.89R                  
LE MARS *      CLOUDY    46  43  87 NW14G24   29.91R                  
ORANGE CITY *  CLOUDY    46  45  93 NW14G23   29.88R                  
SHELDON *      CLOUDY    46  43  87 NW17G28   29.86R                  
SIOUX CITY     CLOUDY    46  42  86 NW21G28   29.91R                  
SPENCER        MOCLDY    45  43  93 NW13      29.86R                  
STORM LAKE *   CLOUDY    46  43  87 NW20      29.84S                  
$$
 
IAZ055>058-069>071-079>083-090>094-150800-
   SOUTHWEST IOWA
  
CITY           SKY/WX    TMP DP  RH WIND       PRES   REMARKS
ATLANTIC *     CLOUDY    54  54 100 W7        29.88R FOG              
AUDUBON *      CLOUDY    52  50  93 W6        29.88R                  
CLARINDA *       N/A     54  54 100 W3          N/A  FOG              
COUNCIL BLFS * CLOUDY    52  52 100 W12       29.89S                  
CRESTON *      CLOUDY    52  52 100 SW9       29.89S FOG              
HARLAN  *      CLOUDY    52  52 100 W12       29.92R                  
LAMONI         LGT RAIN  51  50  96 S8        29.88S FOG              
RED OAK *      CLOUDY    54  54 100 SW6       29.89S FOG              
SHENANDOAH *   FOG       54  54 100 W6        29.90S VSB 1            
$$
 
IAZ047>049-059>061-072>074-084-150800-
   CENTRAL IOWA
  
CITY           SKY/WX    TMP DP  RH WIND       PRES   REMARKS
AMES           CLOUDY    51  51 100 S12       29.82F FOG              
ANKENY *       CLOUDY    50  50 100 S9        29.85F FOG              
BOONE *        CLOUDY    52  52 100 SW8G14    29.83R FOG              
CHARITON *     CLOUDY    50  50 100 S7        29.88F FOG              
DES MOINES     DRIZZLE   51  50  96 S8        29.85F FOG              
GRINNELL*      DRIZZLE   48  47  97 S12       29.87F                  
KNOXVILLE *    CLOUDY    50  50 100 S10       29.86F FOG              
MARSHALLTOWN   CLOUDY    49  49 100 S14       29.83F FOG              
NEWTON *       CLOUDY    48  48 100 S10       29.85F FOG              
PELLA *        DRIZZLE   49  48  97 S7        29.88F                  
PERRY *        CLOUDY    52  52  99 S6        29.84S FOG              
$$
 
IAZ004>006-015-016-023>025-035-036-150800-
   NORTH CENTRAL IOWA
  
CITY           SKY/WX    TMP DP  RH WIND       PRES   REMARKS
ALGONA *       CLOUDY    50  50 100 SW12      29.82S FOG              
CLARION *      FOG       50  50 100 S8        29.81F VSB 1/2          
ESTHERVILLE    CLOUDY    47  46  97 NW12      29.83R                  
FORT DODGE *   CLOUDY    51  49  92 SW10      29.84R                  
MASON CITY     CLOUDY    49  48  97 S7        29.82F FOG              
FOREST CITY *  CLOUDY    50  50 100 SW6       29.80F FOG              
WEBSTER CITY * CLOUDY    52  52 100 SW8       29.81F FOG              
IOWA FALLS *   CLOUDY    50  49  97 S9        29.84F FOG              
$$

IAZ007>011-017>019-026>030-037>042-050>054-066-150800-
   NORTHEAST IOWA
  
CITY           SKY/WX    TMP DP  RH WIND       PRES   REMARKS
CEDAR RAPIDS   CLOUDY    46  45  96 S8        29.88F FOG              
CHARLES CITY * CLOUDY    48  48 100 S13       29.83F FOG              
CLINTON *      CLOUDY    47  39  74 S6        29.95F                  
DECORAH *      CLOUDY    45  45 100 S9G16     29.83F FOG              
DUBUQUE        CLOUDY    44  40  85 S14       29.89F                  
MONTICELLO *   CLOUDY    45  43  93 S9        29.90F FOG              
OELWEIN *      CLOUDY    45  45 100 S13       29.86F FOG              
WATERLOO       CLOUDY    47  46  97 S9        29.85F FOG              
$$
 
IAZ064-065-067-068-078-150800-
   EAST CENTRAL IOWA
  
CITY           SKY/WX    TMP DP  RH WIND       PRES   REMARKS
DAVENPORT      CLOUDY    49  38  65 S8        29.96F                  
IOWA CITY      LGT RAIN  49  45  86 SE5       29.93F FOG              
MT. PLEASANT * CLOUDY    49  40  72 S7        29.92F                  
MUSCATINE *    CLOUDY    46  41  81 CALM      29.93F                  
QUAD CITIES    CLOUDY    50  37  61 S6        29.94F                  
$$
 
IAZ062-063-075>077-085>089-095>099-150800-
   SOUTHEAST IOWA
  
CITY           SKY/WX    TMP DP  RH WIND       PRES   REMARKS
BURLINGTON     LGT RAIN  49  41  74 S9        29.92F                  
FAIRFIELD *    CLOUDY    48  48 100 S7        29.90F FOG              
FORT MADISON * CLOUDY    48  41  76 S7        29.93F                  
KEOKUK *       CLOUDY    52  41  66 S8        29.93S                  
OSKALOOSA *    CLOUDY    48  47  99 S9        29.89F FOG              
OTTUMWA        RAIN      50  48  93 S10       29.89F FOG              
WASHINGTON *   CLOUDY    48  46  93 S9        29.92F                  
$$

ABBREVIATIONS USED IN REMARKS
   TC - TEMPERATURES IN CELSIUS
  WCI - WIND CHILL INDEX
   HX - HEAT INDEX
  VSB - VISIBILITY  
$$

  

690 
ASUS43 KDMX 150701
RWRIA 

WEATHER ROUNDUP FOR IOWA
NATIONAL WEATHER SERVICE DES MOINES IA
100 AM CST WED NOV 15 2017

NOTE: "FAIR" INDICATES FEW OR NO CLOUDS BELOW 12,000 FEET WITH NO
SIGNIFICANT WEATHER AND/OR OBSTRUCTIONS TO VISIBILITY.

* - THESE STATIONS ARE NOT NWS STATIONS...THUS NOT UNDER NWS
QUALITY CONTROL.  THEY ALSO DO NOT REPORT WEATHER SUCH 
AS PRECIPITATION OR FOG.  

IAZ001>003-012>014-020>022-031>034-043>046-150800-
   NORTHWEST IOWA
  
CITY           SKY/WX    TMP DP  RH WIND       PRES   REMARKS
CARROLL *      MOCLDY    52  50  93 W13       29.85R                  
CHEROKEE *     CLOUDY    46  45  95 NW14G21   29.87S                  
DENISON *      CLOUDY    52  50  93 W10       29.89R                  
LE MARS *      CLOUDY    46  43  87 NW14G24   29.91R                  
ORANGE CITY *  CLOUDY    46  45  93 NW14G23   29.88R                  
SHELDON *      CLOUDY    46  43  87 NW17G28   29.86R                  
SIOUX CITY     CLOUDY    46  42  86 NW21G28   29.91R                  
SPENCER        MOCLDY    45  43  93 NW13      29.86R                  
STORM LAKE *   CLOUDY    46  43  87 NW20      29.84S                  
$$
 
IAZ055>058-069>071-079>083-090>094-150800-
   SOUTHWEST IOWA
  
CITY           SKY/WX    TMP DP  RH WIND       PRES   REMARKS
ATLANTIC *     CLOUDY    54  54 100 W7        29.88R FOG              
AUDUBON *      CLOUDY    52  50  93 W6        29.88R                  
CLARINDA *       N/A     54  54 100 W3          N/A  FOG              
COUNCIL BLFS * CLOUDY    52  52 100 W12       29.89S                  
CRESTON *      CLOUDY    52  52 100 SW9       29.89S FOG              
HARLAN  *      CLOUDY    52  52 100 W12       29.92R                  
LAMONI         LGT RAIN  51  50  96 S8        29.88S FOG              
RED OAK *      CLOUDY    54  54 100 SW6       29.89S FOG              
SHENANDOAH *   FOG       54  54 100 W6        29.90S VSB 1            
$$
 
IAZ047>049-059>061-072>074-084-150800-
   CENTRAL IOWA
  
CITY           SKY/WX    TMP DP  RH WIND       PRES   REMARKS
AMES           CLOUDY    51  51 100 S12       29.82F FOG              
ANKENY *       CLOUDY    50  50 100 S9        29.85F FOG              
BOONE *        CLOUDY    52  52 100 SW8G14    29.83R FOG              
CHARITON *     CLOUDY    50  50 100 S7        29.88F FOG              
DES MOINES     DRIZZLE   51  50  96 S8        29.85F FOG              
GRINNELL*      DRIZZLE   48  47  97 S12       29.87F                  
KNOXVILLE *    CLOUDY    50  50 100 S10       29.86F FOG              
MARSHALLTOWN   CLOUDY    49  49 100 S14       29.83F FOG              
NEWTON *       CLOUDY    48  48 100 S10       29.85F FOG              
PELLA *        DRIZZLE   49  48  97 S7        29.88F                  
PERRY *        CLOUDY    52  52  99 S6        29.84S FOG              
$$
 
IAZ004>006-015-016-023>025-035-036-150800-
   NORTH CENTRAL IOWA
  
CITY           SKY/WX    TMP DP  RH WIND       PRES   REMARKS
ALGONA *       CLOUDY    50  50 100 SW12      29.82S FOG              
CLARION *      FOG       50  50 100 S8        29.81F VSB 1/2          
ESTHERVILLE    CLOUDY    47  46  97 NW12      29.83R                  
FORT DODGE *   CLOUDY    51  49  92 SW10      29.84R                  
MASON CITY     CLOUDY    49  48  97 S7        29.82F FOG              
FOREST CITY *  CLOUDY    50  50 100 SW6       29.80F FOG              
WEBSTER CITY * CLOUDY    52  52 100 SW8       29.81F FOG              
IOWA FALLS *   CLOUDY    50  49  97 S9        29.84F FOG              
$$

IAZ007>011-017>019-026>030-037>042-050>054-066-150800-
   NORTHEAST IOWA
  
CITY           SKY/WX    TMP DP  RH WIND       PRES   REMARKS
CEDAR RAPIDS   LGT RAIN  45  45 100 SE8       29.88F FOG              
CHARLES CITY * CLOUDY    48  48 100 S13       29.83F FOG              
CLINTON *      CLOUDY    47  39  74 S6        29.95F                  
DECORAH *      CLOUDY    45  45 100 S9G16     29.83F FOG              
DUBUQUE        CLOUDY    44  40  85 S14       29.89F                  
MONTICELLO *   CLOUDY    45  43  93 S9        29.90F FOG              
OELWEIN *      CLOUDY    45  45 100 S13       29.86F FOG              
WATERLOO       CLOUDY    47  46  97 S9        29.85F FOG              
$$
 
IAZ064-065-067-068-078-150800-
   EAST CENTRAL IOWA
  
CITY           SKY/WX    TMP DP  RH WIND       PRES   REMARKS
DAVENPORT      CLOUDY    49  38  65 S8        29.96F                  
IOWA CITY      LGT RAIN  49  45  86 SE5       29.93F FOG              
MT. PLEASANT * CLOUDY    49  40  72 S7        29.92F                  
MUSCATINE *    CLOUDY    46  41  81 CALM      29.93F                  
QUAD CITIES    CLOUDY    50  37  61 S6        29.94F                  
$$
 
IAZ062-063-075>077-085>089-095>099-150800-
   SOUTHEAST IOWA
  
CITY           SKY/WX    TMP DP  RH WIND       PRES   REMARKS
BURLINGTON     LGT RAIN  49  41  74 S9        29.92F                  
FAIRFIELD *    CLOUDY    48  48 100 S7        29.90F FOG              
FORT MADISON * CLOUDY    48  41  76 S7        29.93F                  
KEOKUK *       CLOUDY    52  41  66 S8        29.93S                  
OSKALOOSA *    CLOUDY    48  47  99 S9        29.89F FOG              
OTTUMWA        RAIN      50  48  93 S10       29.89F FOG              
WASHINGTON *   CLOUDY    48  46  93 S9        29.92F                  
$$

ABBREVIATIONS USED IN REMARKS
   TC - TEMPERATURES IN CELSIUS
  WCI - WIND CHILL INDEX
   HX - HEAT INDEX
  VSB - VISIBILITY  
$$